Tracking 19149 objects as of 20-Apr-2018
HD Live streaming from Space Station
objects crossing your sky now

OV1-2

Track OV1-2 now!
10-day predictions
OV1-2 is classified as:


NORAD ID: 1613
Int'l Code: 1965-078A
Perigee: 406.1 km
Apogee: 2,307.5 km
Inclination: 144.2 °
Period: 112.7 minutes
Semi major axis: 7727 km
RCS: 0.5041 m2 (medium)
Launch date: October 5, 1965
Source: United States (US)
Launch site: AIR FORCE WESTERN TEST RANGE (AFWTR)
aabbcc
Your satellite tracking list
Your tracking list is empty




NASA's NSSDC Master Catalog

Two Line Element Set (TLE):
1  1613U 65078A   18108.96685051 +.00000854 +00000-0 +57271-4 0  9998
2  1613 144.2281 124.0244 1230203 221.5373 128.4997 12.77963713331166
Source of the keplerian elements: AFSPC